Regional Weather Roundup
Issued by NWS Green Bay, WI

Home | Current Version | Previous Version | Graphics & Text | Print | Product List | Glossary Off
Versions: 1 2 3 4 5 6 7 8 9 10 11 12 13 14 15 16 17 18 19 20 21 22 23 24 25 26 27 28 29 30 31 32 33 34 35 36 37 38 39 40 41 42 43 44 45 46 47 48 49 50

000
ASUS43 KGRB 221659
RWRGRB

NORTH-CENTRAL AND NORTHEAST WISCONSIN REGIONAL WEATHER ROUNDUP
NATIONAL WEATHER SERVICE GREEN BAY WI
1100 AM CST MON DEC 22 2014

WIZ005-009-010>012-018-019-221800-
NORTH CENTRAL WISCONSIN

CITY           SKY/WX    TMP DP  RH WIND       PRES   REMARKS
IRONWOOD       CLOUDY    36  32  87 SE8       29.73F
MANITOWISH WTR NOT AVBL
ARBOR VITAE    NOT AVBL
EAGLE RIVER    NOT AVBL
LAND O LAKES   NOT AVBL
RHINELANDER    FOG       31  30  96 SE9       29.80F VSB 1
PHILLIPS       CLOUDY    32  32  99 SE8       29.76F FOG
ANTIGO         NOT AVBL
TOMAHAWK       NOT AVBL
MERRILL        NOT AVBL
$$

WIZ013-073-221800-
NORTHEAST WISCONSIN

CITY           SKY/WX    TMP DP  RH WIND       PRES   REMARKS
IRON MOUNTAIN  CLOUDY    34  32  92 SE9       29.86F FOG
MARINETTE      CLOUDY    36  32  87 S12       29.89F
$$

WIZ017-030-035>037-045-221800-
CENTRAL WISCONSIN

CITY           SKY/WX    TMP DP  RH WIND       PRES   REMARKS
MEDFORD        NOT AVBL
WAUSAU         CLOUDY    33  31  92 SE9       29.79F FOG
MOSINEE        CLOUDY    32  32 100 SE10      29.80F FOG
MARSHFIELD     CLOUDY    35  32  88 SE13      29.77F FOG
WISC RAPIDS    CLOUDY    35  30  82 SE9       29.81F HAZE
STEVENS POINT  NOT AVBL
WAUPACA        NOT AVBL
SHAWANO        CLOUDY    37  33  87 S8        29.86F FOG
CLINTONVILLE   CLOUDY    34  32  93 SE7       29.86F FOG
$$

WIZ038-039-048-051-221800-
FOX VALLEY

CITY           SKY/WX    TMP DP  RH WIND       PRES   REMARKS
NWS GREEN BAY  CLOUDY    36  33  89 SE13      29.88F FOG
APPLETON       NOT AVBL
OSHKOSH        CLOUDY    36  32  85 SE8       29.84F FOG
FOND DU LAC    CLOUDY    37  32  82 SE10      29.85F
$$

WIZ022-050-052-221800-
EAST CENTRAL WISCONSIN

CITY           SKY/WX    TMP DP  RH WIND       PRES   REMARKS
STURGEON BAY   CLOUDY    36  30  80 S15       29.92F
MANITOWOC      NOT AVBL
SHEBOYGAN      CLOUDY    36  32  85 SE10      29.88F FOG
$$

LMZ563-521-522-541>543-221800-
LAKESHORE

STATION/POSITION TIME  TEMP    WIND        PRES    VSBY  WAVE
                       AIR SEA DIR/SP/G                  HT/PER
                 (UTC) (F)     (DEG/KT/KT) (MB)    (MI)  (FT/S)
SHEBOYGAN LKSHOR 1600   36 37  140/ 17/ 20 1014.0F
KEWAUNEE LKSHORE 1600   36     160/ 19/ 21 1012.5F
ALGOMA MARINA    1600          200/ 20/ 24   N/A
TWO RIVERS CG    1600   35                 1013.8      6
NORTHPORT PIER   1600   35     150/ 15/ 18 1014.2F
SISTER BAY LKSHO 1600          170/ 13/ 18   N/A
STURGEON BAY CG  1600   36     160/ 16     1014.8   3 1/2  2
CHAMBERS ISLAND  1600   36     140/  5/ 14 1013.9S
MENOMINEE LKSHOR 1600   35     140/ 15/ 16 1013.5F
$$


USA.gov is the U.S. government's official web portal to all federal, state and local government web resources and services.